Home > Weather > Lille > Past weeks

Flag for France Weather for the Past 2 Weeks in Lille, France

Now
37 °F

Low clouds.


Feels Like: 30 °F
Forecast: 31 / 41 °F
Wind: 10 mph from Southeast

Location: Lille Airport

Current Time: Feb 12, 2016 at 9:35:48 AM

Latest Report: Feb 12, 2016 at 9:00 AM


Visibility: N/A

Pressure: 29.47 "Hg

Humidity: 93%

Dew point: 36 °F

Location of LilleLocation

Historic Weather in Lille — Graph

°F

Lille Temperature Yesterday

Maximum temperature yesterday: 43 °F (at 12:00 PM)
Minimum temperature yesterday: 34 °F (at 6:30 AM)
Average temperature yesterday: 39 °F

High & Low Weather Summary for the Past Weeks

 TemperatureHumidityPressure
High54 °F (Jan 31, 5:00 PM)100% (Feb 2, 5:30 AM)30.36 "Hg (Feb 2, 5:30 AM)
Low34 °F (Feb 11, 6:30 AM)46% (Jan 28, 3:00 PM)28.94 "Hg (Feb 9, 12:30 PM)
Average45 °F84%29.84 "Hg
* Reported Jan 28 8:00 AM — Feb 12 8:30 AM, Lille, Weather by CustomWeather, © 2016

Note: Actual official high and low records may vary slightly from our data, if they occured in-between our weather recording intervals... More about our weather records

Advertising

Lille Weather History for the Previous 24 Hours

 ConditionsComfort  
Time TempWeatherWind HumidityBarometerVisibility
8:30 AM
Fri, Feb 12
37 °FLow clouds.13 mph93%29.47 "HgN/A
8:00 AM37 °FLow clouds.12 mph93%29.47 "Hg6 mi
7:30 AM37 °FLow clouds.12 mph93%29.50 "Hg6 mi
7:00 AM37 °FLow clouds.10 mph93%29.50 "Hg4 mi
6:30 AM37 °FLow clouds.12 mph93%29.50 "Hg4 mi
6:00 AM37 °FFog.12 mph93%29.53 "Hg3 mi
5:30 AM36 °FFog.10 mph100%29.53 "Hg3 mi
5:00 AM36 °FPassing clouds.9 mph93%29.56 "Hg4 mi
4:30 AM36 °FPassing clouds.6 mph93%29.56 "Hg4 mi
4:00 AM36 °FPassing clouds.6 mph93%29.56 "Hg6 mi
3:30 AM36 °FClear.5 mph93%29.56 "Hg10 mi
3:00 AM36 °FClear.6 mph93%29.59 "Hg5 mi
2:30 AM36 °FPassing clouds.6 mph93%29.59 "Hg4 mi
2:00 AM37 °FPartly cloudy.5 mph93%29.59 "Hg4 mi
1:30 AM37 °FPassing clouds.5 mph93%29.59 "Hg4 mi
1:00 AM37 °FMostly cloudy.3 mph100%29.62 "HgN/A
12:30 AM37 °FPassing clouds.3 mph93%29.62 "HgN/A
12:00 AM37 °FOvercast.3 mph93%29.62 "Hg5 mi
11:00 PM
Thu, Feb 11
37 °FPartly cloudy.2 mph93%29.65 "Hg4 mi
10:30 PM37 °FOvercast.2 mph93%29.65 "Hg4 mi
10:00 PM37 °FPartly cloudy.3 mph93%29.65 "Hg4 mi
9:30 PM37 °FMostly cloudy.2 mph93%29.65 "Hg6 mi
9:00 PM37 °FMostly cloudy.No wind93%29.65 "Hg6 mi
8:30 PM37 °FMostly cloudy.No wind93%29.65 "Hg6 mi
8:00 PM37 °FPassing clouds.2 mph93%29.65 "Hg6 mi
7:30 PM37 °FClear.3 mph93%29.65 "Hg5 mi
7:00 PM39 °FClear.2 mph87%29.65 "Hg6 mi
6:30 PM39 °FPassing clouds.6 mph93%29.65 "HgN/A
6:00 PM41 °FPassing clouds.6 mph87%29.65 "HgN/A
5:30 PM41 °FMostly cloudy.3 mph93%29.65 "HgN/A
5:00 PM41 °FOvercast.5 mph93%29.65 "HgN/A
4:30 PM41 °FMostly cloudy.6 mph93%29.65 "HgN/A
4:00 PM41 °FOvercast.3 mph93%29.65 "HgN/A
3:30 PM41 °FLight rain. Mostly cloudy.2 mph93%29.65 "HgN/A
3:00 PM41 °FMostly cloudy.5 mph93%29.65 "HgN/A
2:30 PM41 °FLight rain. Mostly cloudy.7 mph93%29.65 "HgN/A
2:00 PM41 °FMostly cloudy.10 mph87%29.68 "HgN/A
1:30 PM43 °FMostly cloudy.12 mph81%29.68 "HgN/A
1:00 PM43 °FCloudy.9 mph81%29.68 "HgN/A
12:30 PM43 °FMore clouds than sun.8 mph87%29.68 "HgN/A
12:00 PM43 °FMostly cloudy.13 mph87%29.68 "HgN/A
11:30 AM41 °FPartly sunny.9 mph93%29.68 "HgN/A
11:00 AM39 °FLow clouds.9 mph100%29.68 "Hg5 mi
10:30 AM39 °FMostly cloudy.8 mph93%29.68 "HgN/A
10:00 AM37 °FMostly cloudy.6 mph93%29.68 "HgN/A
9:30 AM36 °FMore clouds than sun.3 mph100%29.68 "HgN/A
9:00 AM36 °FSunny.3 mph93%29.68 "Hg10 mi
Weather by CustomWeather, © 2016

See weather overviewHow to use our weather pages